{"data":{"norad_id":59805,"epoch":"2026-05-25T04:53:08.968128Z","epoch_age_seconds":50703,"freshness":"FRESH","line1":"1 59805U 24094A   26145.20357602  .00006357  00000+0  33030-3 0  9991","line2":"2 59805  97.3875 216.6003 0003195 279.3544  80.7328 15.16427319111682","mean_motion":15.16427319,"eccentricity":0.0003195,"inclination_deg":97.3875,"raan_deg":216.6003,"arg_perigee_deg":279.3544,"mean_anomaly_deg":80.7328,"bstar":0.0003303,"rev_number":11168,"period_min":94.960040745613,"perigee_km":514.44585681326,"apogee_km":518.85162490167,"semimajor_km":6894.7857408575,"source":"CELESTRAK","updated_at":"2026-05-25T13:38:01.683992Z"}}